[[{"header":{"parameterUnit":"m.s-1","parameterCategory":1,"la1":30.2991,"la2":30.254,"lo1":-89.0895,"lo2":-89.0444,"dy":0.0017,"dx":0.0017,"nx":28,"ny":28,"refTime":"2023-10-09T21:00:00:Z","depth":0,"parameterNumber":2,"parameterNumberName":"U-component_of_WINDS"},"data":[0,0,0,0,0,0,0,0,0,0,0,0,0,0,0,0,0,0,0,0,0,0,0,0,0,0,0,0,0,0,0,0,0,0,0,0,0,0,0,0,0,0,0,0,0,0,0,0,0,0,0,0,0,0,0,0,0,0,1.7692,1.7693,0,1.7828,1.7829,1.7831,1.7858,1.7857,1.7856,1.7855,1.7994,1.7998,1.8003,0,0,0,0,0,0,0,0,0,0,0,0,0,1.7454,1.7458,1.7692,1.7693,1.7695,1.7828,1.7829,1.7831,1.7858,1.7857,1.7855,1.7854,1.7992,1.7998,1.8003,0,0,0,0,0,0,0,0,0,0,0,0,0,1.757,1.7459,1.7691,1.7724,1.7729,1.7827,1.7829,1.7832,1.7858,1.7857,1.7855,1.7853,1.799,1.7997,1.8004,1.8079,0,0,1.8025,1.8029,0,0,0,0,0,0,0,0,1.7564,1.7579,1.7718,1.7722,1.7727,1.7824,1.7797,1.7915,1.7859,1.7809,1.7855,1.7853,1.7938,1.795,1.7979,1.8086,1.8092,1.8026,1.803,1.8033,1.8035,0,0,0,0,0,0,0,1.7555,1.7573,1.7746,1.772,1.7726,1.7732,1.7747,1.7819,1.7881,1.7813,1.7815,1.7831,1.7941,1.7972,1.7982,1.8094,1.8026,1.8032,1.8036,1.8039,1.8267,1.8269,0,0,0,0,0,0,1.7542,1.7566,1.7741,1.775,1.764,1.7737,1.7754,1.7795,1.788,1.7892,1.7832,1.7832,1.7961,1.7974,1.7987,1.8079,1.8033,1.804,1.8044,1.8265,1.8267,1.8269,0,0,0,0,0,0,1.7536,1.7557,1.7736,1.7659,1.7682,1.7743,1.7789,1.7798,1.7829,1.7895,1.7906,1.7853,1.796,1.7977,1.8056,1.8084,1.8043,1.8049,1.8263,1.8266,1.8268,1.8265,0,0,0,0,0,0,1.753,1.7555,1.7585,1.7659,1.7686,1.7802,1.7791,1.7802,1.7841,1.7842,1.7917,1.7928,1.796,1.8045,1.8063,1.8093,1.8055,1.8261,1.8264,1.8268,1.8263,1.8267,1.8271,0,0,0,0,0,1.7521,1.7579,1.7586,1.7607,1.7724,1.7804,1.7819,1.7855,1.7844,1.7873,1.7915,1.7925,1.8079,1.8053,1.8073,1.8106,1.8259,1.8263,1.8267,1.8261,1.8266,1.8271,0,0,0,0,0,0,1.7506,1.7589,1.7598,1.7682,1.7736,1.7808,1.7847,1.786,1.7919,1.7917,1.7959,1.7975,1.8051,1.8087,1.8056,1.8182,1.8168,1.8176,1.8156,1.8162,1.8166,1.8155,1.8061,0,0,0,0,0,1.7513,1.7571,1.764,1.7707,1.7734,1.7786,1.7822,1.7845,1.7902,1.7925,1.7973,1.8028,1.8088,1.8127,1.8187,1.8268,1.8284,1.8301,1.8305,1.8308,1.8315,1.8358,1.8366,1.8283,1.8283,1.8283,0,0,1.7527,1.7579,1.7614,1.7706,1.775,1.7808,1.7805,1.7867,1.7911,1.7935,1.8011,1.8048,1.8112,1.8192,1.8229,1.8224,1.8341,1.8313,1.8315,1.832,1.8363,1.8371,1.8378,1.8286,1.8285,1.8285,0,0,1.7582,1.7628,1.7688,1.7733,1.78,1.7834,1.7848,1.7919,1.7944,1.8021,1.804,1.8092,1.8196,1.824,1.8276,1.8346,1.8357,1.8365,1.8386,1.8428,1.8435,1.8441,1.8464,1.8472,1.8371,1.8371,1.8371,0,1.7591,1.7681,1.7718,1.7779,1.7818,1.7842,1.7902,1.7943,1.8026,1.8053,1.8045,1.8175,1.822,1.8309,1.8326,1.8355,1.8372,1.8356,1.8431,1.8437,1.8443,1.8466,1.8475,1.8371,1.8371,1.8371,1.8371,0,1.7688,1.7749,1.7789,1.7868,1.7912,1.7973,1.8018,1.8058,1.8076,1.8111,1.8188,1.8243,1.8313,1.8336,1.8356,1.8428,1.8422,1.8423,1.8409,1.8451,1.8473,1.8482,1.8372,1.8372,1.8372,1.8371,0,0,1.7738,1.7835,1.785,1.7885,1.796,1.8008,1.8069,1.8137,1.8169,1.8225,1.8277,1.8363,1.8363,1.8404,1.8428,1.8466,1.8515,1.8461,1.8463,1.8468,1.8597,1.8595,1.8605,1.8523,1.8525,1.8527,1.8591,0,1.7802,1.7911,1.7945,1.8037,1.8093,1.8115,1.8168,1.8219,1.8253,1.8305,1.8342,1.8402,1.8398,1.8423,1.8461,1.8501,1.8542,1.8497,1.857,1.8573,1.8552,1.8617,1.8616,1.8674,1.86,1.8601,1.8603,0,1.7891,1.7947,1.8043,1.8109,1.8134,1.8181,1.8245,1.8295,1.8353,1.8375,1.842,1.8441,1.8504,1.8487,1.8574,1.8543,1.8575,1.8599,1.8602,1.861,1.8589,1.8624,1.8693,1.8701,1.8617,1.8616,1.8615,0,1.7916,1.8016,1.8086,1.8116,1.8195,1.8227,1.8262,1.8318,1.8356,1.8412,1.8437,1.85,1.8534,1.8582,1.8618,1.8603,1.8702,1.8688,1.8721,1.872,1.874,1.8738,1.8813,1.8762,1.8762,1.8762,1.8762,0,1.7982,1.804,1.8099,1.8142,1.8207,1.8245,1.8308,1.8344,1.8393,1.8443,1.8467,1.8513,1.8559,1.8611,1.8641,1.8707,1.8723,1.8741,1.8748,1.8739,1.8736,1.876,1.8756,1.8764,1.8764,1.8763,1.8763,0,1.8021,1.8063,1.8141,1.8209,1.8227,1.8272,1.833,1.8372,1.8406,1.8468,1.8485,1.8538,1.8601,1.8642,1.8722,1.8742,1.8814,1.882,1.8794,1.8797,1.8826,1.8822,1.8919,1.8932,1.8873,1.8874,1.8874,0,1.8061,1.8106,1.8178,1.8212,1.8247,1.8303,1.8341,1.8381,1.842,1.8488,1.8521,1.8585,1.8638,1.8736,1.8782,1.8842,1.885,1.8879,1.8859,1.8848,1.8849,1.8845,1.8849,1.8882,1.8883,1.8883,1.8883,0,1.8125,1.8143,1.8198,1.8259,1.8304,1.8355,1.8405,1.8433,1.848,1.8523,1.8586,1.8627,1.8708,1.877,1.8835,1.887,1.8884,1.8889,1.89,1.889,1.8872,1.8881,1.8801,1.8887,1.8887,1.8886,1.8886,1.8886,1.8165,1.8205,1.8262,1.8321,1.8363,1.8409,1.8451,1.849,1.8544,1.8612,1.8632,1.8698,1.8753,1.8841,1.8877,1.8928,1.8925,1.8941,1.8945,1.8947,1.8947,1.8865,1.894,1.894,1.894,1.894,1.894,0,1.823,1.8267,1.8321,1.839,1.8437,1.8446,1.8502,1.854,1.8597,1.8647,1.8699,1.8771,1.8831,1.888,1.8942,1.8974,1.8982,1.8989,1.8986,1.8994,1.8947,1.8931,1.8981,1.8981,1.8981,1.8981,1.8981,1.8981,1.8269,1.8336,1.8361,1.8449,1.8485,1.855,1.858,1.8623,1.8663,1.8742,1.8792,1.8823,1.8873,1.8938,1.8993,1.9006,1.9027,1.9033,1.9047,1.9002,1.8997,1.8993,1.8978,1.9037,1.9037,1.9089,1.909,1.909]},{"header":{"parameterUnit":"m.s-1","parameterCategory":1,"la1":30.2991,"la2":30.254,"lo1":-89.0895,"lo2":-89.0444,"dy":0.0017,"dx":0.0017,"nx":28,"ny":28,"refTime":"2023-10-09T21:00:00:Z","depth":0,"parameterNumber":3,"parameterNumberName":"V-component_of_WINDS"},"data":[0,0,0,0,0,0,0,0,0,0,0,0,0,0,0,0,0,0,0,0,0,0,0,0,0,0,0,0,0,0,0,0,0,0,0,0,0,0,0,0,0,0,0,0,0,0,0,0,0,0,0,0,0,0,0,0,0,0,-0.5266,-0.5266,0,-0.523,-0.523,-0.5229,-0.5218,-0.5218,-0.5218,-0.5219,-0.518,-0.5179,-0.5178,0,0,0,0,0,0,0,0,0,0,0,0,0,-0.5323,-0.5322,-0.5266,-0.5266,-0.5265,-0.523,-0.523,-0.5229,-0.5218,-0.5218,-0.5219,-0.5219,-0.518,-0.5179,-0.5177,0,0,0,0,0,0,0,0,0,0,0,0,0,-0.5294,-0.5322,-0.5266,-0.5256,-0.5254,-0.523,-0.523,-0.5229,-0.5218,-0.5218,-0.5219,-0.5219,-0.5181,-0.5179,-0.5177,-0.5161,0,0,-0.5172,-0.5171,0,0,0,0,0,0,0,0,-0.5295,-0.5292,-0.5258,-0.5256,-0.5255,-0.5229,-0.5236,-0.5206,-0.5218,-0.5232,-0.5219,-0.5219,-0.5196,-0.5193,-0.5185,-0.5159,-0.5157,-0.5172,-0.5171,-0.517,-0.5169,0,0,0,0,0,0,0,-0.5298,-0.5293,-0.5252,-0.5257,-0.5255,-0.5252,-0.5248,-0.523,-0.5213,-0.5231,-0.523,-0.5226,-0.5195,-0.5187,-0.5185,-0.5157,-0.5172,-0.517,-0.5169,-0.5168,-0.5115,-0.5114,0,0,0,0,0,0,-0.5302,-0.5295,-0.5253,-0.5251,-0.5276,-0.5251,-0.5246,-0.5237,-0.5213,-0.521,-0.5225,-0.5225,-0.519,-0.5187,-0.5183,-0.5162,-0.517,-0.5168,-0.5167,-0.5115,-0.5115,-0.5114,0,0,0,0,0,0,-0.5303,-0.5298,-0.5254,-0.5273,-0.5267,-0.5249,-0.5239,-0.5236,-0.5228,-0.5209,-0.5206,-0.5221,-0.519,-0.5186,-0.5167,-0.516,-0.5167,-0.5166,-0.5116,-0.5115,-0.5115,-0.512,0,0,0,0,0,0,-0.5305,-0.5299,-0.5293,-0.5273,-0.5266,-0.5239,-0.5239,-0.5235,-0.5225,-0.5225,-0.5204,-0.52,-0.519,-0.5169,-0.5165,-0.5158,-0.5164,-0.5116,-0.5115,-0.5115,-0.512,-0.512,-0.5119,0,0,0,0,0,-0.5307,-0.5295,-0.5292,-0.5287,-0.5258,-0.5239,-0.5235,-0.5224,-0.5225,-0.5218,-0.5206,-0.5201,-0.5162,-0.5167,-0.5162,-0.5155,-0.5116,-0.5115,-0.5115,-0.512,-0.512,-0.5119,0,0,0,0,0,0,-0.5314,-0.5292,-0.5289,-0.5271,-0.5257,-0.5237,-0.5228,-0.5223,-0.5208,-0.5208,-0.5195,-0.519,-0.5172,-0.5161,-0.5168,-0.5138,-0.5139,-0.5137,-0.5145,-0.5144,-0.5144,-0.5146,-0.5163,0,0,0,0,0,-0.5314,-0.5301,-0.5282,-0.5268,-0.5261,-0.5246,-0.5237,-0.523,-0.5214,-0.5208,-0.5195,-0.5179,-0.5164,-0.5153,-0.5138,-0.5119,-0.5114,-0.5111,-0.5111,-0.511,-0.5109,-0.5097,-0.5096,-0.5112,-0.5112,-0.5112,0,0,-0.5313,-0.5299,-0.5292,-0.5269,-0.5257,-0.5243,-0.5241,-0.5226,-0.5215,-0.5206,-0.5187,-0.5176,-0.5158,-0.5139,-0.513,-0.513,-0.5103,-0.5109,-0.5109,-0.5108,-0.5096,-0.5095,-0.5094,-0.5111,-0.5111,-0.5111,0,0,-0.5304,-0.5292,-0.5279,-0.5268,-0.525,-0.524,-0.5237,-0.5218,-0.5211,-0.5192,-0.5184,-0.5171,-0.5144,-0.5132,-0.5122,-0.5108,-0.5102,-0.5103,-0.51,-0.5089,-0.5088,-0.5087,-0.5081,-0.5079,-0.5102,-0.5102,-0.5102,0,-0.5304,-0.5283,-0.5273,-0.5258,-0.5248,-0.524,-0.5226,-0.5215,-0.5193,-0.5186,-0.5186,-0.5153,-0.514,-0.5118,-0.5114,-0.5107,-0.5102,-0.5105,-0.5089,-0.5088,-0.5087,-0.5081,-0.5079,-0.5102,-0.5102,-0.5102,-0.5102,0,-0.5285,-0.527,-0.5261,-0.5241,-0.523,-0.5216,-0.5203,-0.5193,-0.5186,-0.5176,-0.5157,-0.5142,-0.5123,-0.5117,-0.511,-0.5093,-0.5094,-0.5092,-0.5093,-0.5085,-0.508,-0.5078,-0.5102,-0.5102,-0.5102,-0.5102,0,0,-0.5279,-0.5253,-0.525,-0.524,-0.5221,-0.5209,-0.5194,-0.5176,-0.5168,-0.5153,-0.514,-0.5117,-0.5116,-0.5104,-0.5096,-0.5087,-0.5076,-0.5086,-0.5086,-0.5084,-0.5056,-0.5057,-0.5054,-0.5073,-0.5072,-0.5072,-0.5057,0,-0.5266,-0.524,-0.523,-0.5209,-0.5195,-0.5187,-0.5174,-0.516,-0.515,-0.5136,-0.5125,-0.5109,-0.5109,-0.5102,-0.5092,-0.508,-0.507,-0.5081,-0.506,-0.5059,-0.5064,-0.5052,-0.5053,-0.5039,-0.5055,-0.5055,-0.5054,0,-0.5248,-0.5234,-0.5211,-0.5193,-0.5187,-0.5175,-0.5158,-0.5145,-0.5129,-0.5122,-0.511,-0.5103,-0.5086,-0.5089,-0.5066,-0.5073,-0.5064,-0.5057,-0.5056,-0.5053,-0.5056,-0.5048,-0.5035,-0.5032,-0.5051,-0.5051,-0.5051,0,-0.5245,-0.522,-0.5203,-0.5195,-0.5174,-0.5166,-0.5156,-0.5141,-0.5131,-0.5115,-0.5108,-0.5091,-0.5082,-0.5068,-0.5056,-0.5059,-0.5034,-0.5036,-0.5027,-0.5028,-0.5022,-0.5022,-0.5006,-0.5017,-0.5017,-0.5017,-0.5017,0,-0.5232,-0.5218,-0.5202,-0.5191,-0.5175,-0.5164,-0.5148,-0.5138,-0.5124,-0.5111,-0.5103,-0.509,-0.5076,-0.5061,-0.5052,-0.5034,-0.503,-0.5024,-0.5021,-0.5024,-0.5024,-0.5017,-0.5017,-0.5017,-0.5017,-0.5017,-0.5017,0,-0.5226,-0.5214,-0.5195,-0.5176,-0.5171,-0.516,-0.5144,-0.5133,-0.5123,-0.5107,-0.5102,-0.5086,-0.5069,-0.5056,-0.5033,-0.5027,-0.5007,-0.5005,-0.5013,-0.5012,-0.5004,-0.5005,-0.4982,-0.4978,-0.4993,-0.4992,-0.4992,0,-0.5218,-0.5207,-0.5187,-0.5178,-0.5169,-0.5154,-0.5144,-0.5132,-0.5122,-0.5103,-0.5094,-0.5076,-0.5061,-0.5034,-0.502,-0.5003,-0.5,-0.4993,-0.4997,-0.5,-0.4999,-0.4999,-0.4998,-0.4992,-0.4992,-0.4992,-0.4992,0,-0.5205,-0.5199,-0.5185,-0.5169,-0.5157,-0.5143,-0.513,-0.5122,-0.5108,-0.5097,-0.5079,-0.5068,-0.5045,-0.5027,-0.5009,-0.4998,-0.4992,-0.4991,-0.4988,-0.499,-0.4995,-0.4992,-0.5011,-0.4991,-0.4991,-0.4991,-0.4991,-0.4991,-0.5196,-0.5186,-0.5171,-0.5155,-0.5144,-0.5131,-0.512,-0.5109,-0.5094,-0.5075,-0.5069,-0.5051,-0.5035,-0.5009,-0.4999,-0.4984,-0.4984,-0.498,-0.4978,-0.4977,-0.4977,-0.4998,-0.498,-0.498,-0.498,-0.498,-0.498,0,-0.5182,-0.5172,-0.5158,-0.5139,-0.5126,-0.5123,-0.5108,-0.5097,-0.5081,-0.5067,-0.5053,-0.5033,-0.5015,-0.5,-0.4982,-0.4973,-0.497,-0.4969,-0.4969,-0.4967,-0.4979,-0.4983,-0.4972,-0.4972,-0.4972,-0.4972,-0.4972,-0.4972,-0.5173,-0.5156,-0.5149,-0.5125,-0.5115,-0.5097,-0.5089,-0.5077,-0.5066,-0.5043,-0.5029,-0.502,-0.5005,-0.4986,-0.497,-0.4966,-0.4959,-0.4958,-0.4954,-0.4965,-0.4966,-0.4967,-0.497,-0.4957,-0.4957,-0.4943,-0.4943,-0.4943]}]]